Wind_Speed
13 14 15 16 16 16 16 16 17 16 16 16 16 17 17 17 18 18 18 18 17 17 18 18 18 20 19 20 18 17 15 14 12 17 18 20 19 19 18 19 15 14 16 12 7 13 7
14 14 15 16 17 18 18 18 18 18 19 18 17 18 19 19 18 19 19 19 18 18 17 17 16 17 18 17 18 20 20 18 16 15 18 19 22 21 20 21 19 16 16 16 13 12 12
18 19 20 20 21 22 23 23 24 25 25 25 24 22 21 20 20 19 20 20 20 19 19 19 19 18 17 15 15 18 20 21 21 18 17 19 21 22 22 21 19 16 15 16 17 13 14
20 21 22 23 25 25 26 26 26 26 27 26 25 23 23 22 23 22 22 21 21 21 21 21 21 21 20 19 18 17 18 19 20 23 22 19 19 22 21 24 19 17 17 16 16 16 16
26 28 29 30 30 31 32 33 32 31 29 29 30 29 28 27 27 27 27 26 25 24 23 23 23 24 24 23 22 22 20 19 19 20 23 23 20 20 23 21 24 20 17 18 18 20 16
29 30 31 31 31 33 33 33 33 33 34 33 32 31 30 30 29 29 29 28 27 26 25 24 23 23 25 26 26 25 25 24 23 23 21 22 24 21 21 23 19 22 22 18 20 18 18
36 36 35 34 34 34 34 34 35 36 35 37 37 35 33 32 31 31 31 31 32 31 30 29 29 28 28 28 28 30 30 28 27 27 26 24 23 21 22 21 23 25 21 24 18 27 23
35 36 36 36 36 34 33 33 33 34 34 34 35 37 38 36 35 35 34 34 34 35 36 37 37 35 34 33 32 31 31 33 32 29 30 30 25 23 28 29 29 31 32 28 25 29 24
37 38 37 38 38 39 37 36 34 33 33 33 33 33 33 33 33 34 33 33 33 34 36 35 37 38 37 37 37 34 33 35 34 36 35 33 32 32 30 31 33 32 31 32 29 29 34
44 42 39 39 40 39 39 40 38 37 35 36 34 33 34 33 33 33 32 32 33 35 35 37 35 35 34 35 37 36 37 37 38 39 40 40 39 38 37 35 34 35 31 35 41 35 30
44 42 43 39 38 38 39 36 37 38 37 35 33 33 33 32 31 30 30 32 33 35 31 40 37 35 33 36 36 36 38 38 39 40 43 41 44 44 43 41 39 38 37 38 42 47 42
43 44 44 44 41 43 42 38 34 32 33 33 31 29 30 31 31 30 30 30 30 30 29 38 36 33 33 35 37 36 38 40 40 41 43 44 47 47 49 49 44 43 43 45 45 46 53
44 46 47 47 46 42 36 32 30 28 29 28 29 29 27 28 29 29 29 28 27 27 34 40 37 32 34 37 36 38 39 40 40 42 44 44 47 49 50 53 53 49 48 48 49 50 52
47 50 48 43 34 31 32 31 30 26 23 23 25 26 26 26 24 23 22 23 24 28 35 32 30 30 29 34 35 35 37 37 42 46 42 44 32 49 50 52 54 58 53 52 48 44 48
48 44 39 35 32 34 31 33 31 28 25 20 18 17 17 18 19 20 19 18 19 29 25 24 27 29 30 31 32 31 35 38 47 41 43 40 42 33 52 55 52 54 58 54 38 34 38
44 39 37 35 37 31 30 31 30 29 27 17 14 11 11 9 8 9 10 12 12 15 14 18 21 26 29 35 34 37 38 44 44 38 40 41 43 38 45 52 53 53 47 51 51 45 44
38 37 34 36 36 29 29 28 27 28 21 8 6 3 5 5 2 2 6 10 15 17 20 24 29 33 37 38 43 40 42 46 46 44 45 44 44 41 43 47 47 48 54 52 40 51 45
36 35 34 36 32 32 30 27 23 21 21 14 9 5 6 5 2 2 5 8 10 11 14 20 25 31 37 40 42 46 43 48 52 51 49 49 49 46 45 43 47 46 36 46 47 43 51
35 35 34 33 32 30 29 24 22 16 14 13 12 11 11 9 8 7 8 9 11 15 18 20 25 29 33 39 43 46 48 50 57 56 53 55 55 53 51 51 53 53 51 50 44 47 46
33 35 32 31 32 28 26 21 19 19 18 16 16 15 14 12 11 11 14 17 19 21 24 27 30 33 35 37 38 40 44 44 54 50 56 52 52 53 51 32 41 47 52 48 44 48 54
31 35 30 29 32 26 22 21 20 18 17 16 15 14 13 14 15 17 21 22 21 23 21 15 17 21 23 24 22 27 33 35 41 40 43 44 47 48 54 52 54 57 56 54 53 54 62
29 32 30 27 30 24 21 20 21 21 19 18 17 17 16 17 19 20 19 17 15 11 11 14 18 21 27 28 25 20 25 28 32 34 35 37 40 43 51 51 59 58 63 62 62 60 65
28 27 28 25 26 24 19 20 21 23 20 18 20 21 20 21 22 20 14 11 6 6 8 15 17 22 23 23 25 24 21 24 26 27 27 31 35 36 39 36 47 57 56 57 59 61 62
30 23 24 23 23 22 20 18 17 18 19 20 20 22 21 21 21 13 9 4 5 7 12 16 19 24 26 20 20 22 24 23 24 23 26 26 29 33 35 31 35 44 49 59 58 63 64
29 19 22 20 22 22 19 18 20 20 23 21 23 23 22 20 15 10 6 7 12 18 20 22 26 29 22 17 15 18 14 14 17 22 29 30 33 33 36 39 33 33 36 55 66 67 60
26 18 22 18 22 21 20 20 20 21 22 23 23 22 19 18 12 10 11 16 25 19 21 23 29 22 17 15 14 13 11 14 19 19 17 20 26 32 39 41 36 23 43 46 59 64 56
25 21 20 21 20 20 21 22 22 23 23 23 22 20 14 13 14 15 17 20 28 24 21 24 21 20 19 22 19 10 11 12 15 16 17 18 22 27 31 41 35 42 42 46 55 61 64
24 22 22 22 22 23 21 21 23 21 19 21 23 23 19 13 13 12 18 21 23 23 21 21 22 20 22 23 22 11 10 9 10 7 9 17 17 17 22 31 38 39 30 40 48 56 56
24 24 23 22 23 22 21 22 19 17 18 22 24 26 25 19 14 11 15 20 26 25 24 24 26 27 25 21 23 16 8 11 11 6 4 4 13 20 21 24 29 32 33 24 38 35 55
Wind_Direction
333 326 322 317 313 310 307 304 298 292 287 284 281 279 278 276 275 272 268 263 261 262 262 262 259 257 253 249 247 242 240 239 233 225 227 223 221 219 219 222 213 206 202 196 191 211 211
332 325 319 313 307 300 294 290 289 288 287 284 279 275 273 272 269 266 264 263 259 258 259 259 257 257 255 251 245 243 241 240 238 232 228 226 226 226 226 229 221 214 212 224 228 203 217
317 312 307 303 299 297 294 291 287 282 281 282 283 279 277 271 267 262 260 258 256 251 252 255 256 254 255 253 247 241 241 240 238 239 234 228 227 228 227 232 233 225 222 220 210 220 210
309 306 302 301 299 298 296 292 287 285 283 279 274 270 268 270 271 265 261 259 256 253 251 249 249 251 253 252 251 245 239 242 239 237 240 234 229 228 225 229 234 232 230 230 232 230 218
318 313 307 302 297 293 291 290 289 287 283 277 272 269 266 264 266 266 262 259 257 255 252 249 247 248 248 248 247 247 243 238 241 241 239 238 232 228 227 224 224 227 229 229 235 214 212
318 315 311 305 299 295 293 290 285 280 278 278 275 271 267 266 263 261 259 256 255 254 252 253 252 250 249 244 244 245 246 242 236 241 241 236 235 229 230 228 222 228 227 227 230 215 221
321 319 316 311 306 299 291 285 284 282 278 273 272 271 270 267 264 260 258 258 255 253 250 252 252 254 255 251 246 244 243 242 241 237 242 241 235 233 229 227 215 203 228 220 228 232 215
329 323 320 319 314 308 301 294 288 283 280 277 275 269 267 266 264 263 259 257 254 255 254 255 254 254 254 252 248 243 243 242 242 239 234 239 240 230 227 224 222 222 219 211 209 232 215
326 324 319 311 304 301 298 293 288 283 279 276 273 271 269 266 265 263 258 258 255 257 256 254 253 253 250 249 246 244 243 244 242 239 239 235 236 230 229 229 227 230 218 217 214 230 222
333 330 324 319 314 307 301 295 291 289 286 278 272 267 267 263 262 259 256 256 257 255 255 251 247 247 244 244 242 242 242 242 243 242 242 238 233 233 231 229 229 228 224 220 217 209 228
333 329 328 324 318 317 315 309 296 288 286 285 283 274 263 260 262 261 256 253 252 253 251 250 244 244 245 243 244 243 243 242 240 239 240 241 236 232 231 229 226 224 222 220 225 221 223
331 328 324 320 315 313 311 307 300 295 288 283 280 276 270 266 262 259 261 259 254 251 248 250 250 248 247 245 245 243 242 242 241 240 240 238 238 234 228 229 228 224 223 226 227 225 228
336 333 326 322 322 325 324 316 308 300 292 287 282 276 267 264 259 260 258 255 252 246 248 251 249 248 247 248 246 245 243 240 240 240 240 238 236 238 234 229 227 224 223 225 226 228 232
336 334 332 336 341 343 339 337 337 330 313 298 282 275 271 264 260 255 252 253 248 241 246 260 255 247 248 249 249 246 245 244 241 241 239 237 243 238 238 231 230 228 225 224 228 232 236
339 338 338 338 338 339 340 340 335 333 324 305 301 293 282 268 261 256 252 247 235 240 257 253 253 255 254 249 246 241 243 242 244 239 240 236 236 240 236 235 225 227 228 226 228 228 237
340 342 343 343 343 344 345 340 338 340 332 302 305 306 301 289 259 240 238 239 255 259 254 253 252 257 255 262 250 254 251 243 243 233 232 235 239 237 240 237 234 226 222 228 223 224 226
344 347 347 347 347 350 347 343 348 359 358 359 332 16 46 44 36 269 265 270 268 265 264 261 259 260 262 258 265 257 255 250 244 242 240 239 237 233 240 243 237 236 226 216 219 231 227
349 350 347 350 352 358 351 355 359 11 23 36 45 38 358 357 6 334 303 302 304 311 285 281 271 266 264 264 260 262 255 251 246 242 241 241 240 238 240 244 242 232 230 231 222 217 229
350 351 348 352 354 356 360 2 10 15 19 17 22 40 53 51 43 22 0 346 332 322 311 288 276 264 259 258 259 257 257 255 251 251 248 244 244 243 241 241 245 240 229 220 219 216 222
350 352 352 354 357 3 7 11 23 33 35 42 47 51 45 42 34 15 356 346 334 321 307 296 290 284 278 272 268 265 267 265 257 257 252 247 242 240 235 230 230 233 234 228 223 219 220
354 355 355 357 2 10 13 19 28 35 45 47 44 38 27 20 13 0 346 339 327 316 327 356 356 340 333 325 286 263 257 256 258 258 258 256 250 242 235 216 222 225 228 221 211 216 212
354 356 358 359 8 13 15 32 38 39 47 40 33 26 20 13 3 357 351 341 336 352 23 355 343 330 330 331 321 294 271 260 252 253 248 245 243 240 239 230 225 223 228 227 227 225 218
350 352 358 1 8 18 28 26 35 27 28 19 19 12 9 11 8 3 1 356 18 16 333 349 345 326 326 316 313 300 289 259 257 249 243 237 241 242 239 238 229 227 227 230 227 225 223
351 353 359 5 8 14 14 22 18 7 6 5 2 360 4 7 11 13 13 31 350 334 335 338 343 343 328 319 314 307 280 268 257 246 239 240 236 234 234 222 234 227 224 225 225 225 224
352 354 359 359 4 3 0 358 359 359 355 355 354 355 2 8 9 17 1 335 322 325 330 332 335 334 328 320 320 323 319 291 275 263 249 246 241 243 238 235 239 225 229 224 225 222 220
358 354 357 354 354 357 350 347 348 346 351 350 353 359 4 5 10 0 347 344 347 330 328 335 336 342 341 347 332 335 319 294 283 286 264 240 238 251 243 239 231 219 236 225 223 224 223
1 354 351 357 359 356 353 348 347 349 351 356 3 4 3 355 1 3 357 353 6 5 357 347 351 353 359 4 352 336 323 313 294 268 267 249 254 254 237 230 229 228 226 227 221 221 221
357 354 354 351 356 353 353 357 351 357 10 11 10 7 359 345 336 339 11 12 1 2 1 360 357 358 9 3 355 337 333 339 345 306 261 244 255 233 231 231 232 230 232 227 221 224 224
354 350 355 352 352 351 349 352 6 16 14 10 7 9 8 8 358 341 344 353 6 3 4 3 5 10 6 3 357 349 345 10 10 343 77 239 235 222 230 229 238 236 229 215 218 214 228
Height
5874 5872 5870 5868 5866 5864 5862 5861 5859 5857 5856 5854 5853 5852 5851 5850 5850 5849 5849 5850 5850 5850 5851 5851 5852 5853 5855 5857 5860 5861 5862 5864 5865 5867 5868 5871 5873 5875 5877 5879 5883 5885 5887 5888 5889 5890 5890
5872 5870 5868 5865 5863 5861 5859 5857 5855 5853 5852 5850 5849 5847 5846 5845 5845 5845 5845 5845 5846 5846 5846 5847 5848 5849 5850 5853 5854 5856 5858 5860 5862 5864 5866 5868 5870 5873 5875 5878 5881 5884 5886 5888 5889 5890 5891
5871 5868 5865 5862 5859 5856 5854 5852 5850 5847 5845 5843 5843 5842 5840 5839 5839 5839 5840 5840 5841 5841 5842 5842 5843 5844 5846 5849 5849 5851 5853 5856 5858 5861 5862 5865 5868 5871 5874 5877 5880 5884 5885 5886 5888 5890 5890
5867 5863 5859 5856 5853 5850 5847 5845 5842 5839 5837 5836 5835 5834 5834 5833 5833 5833 5833 5834 5835 5836 5836 5837 5838 5839 5841 5843 5844 5846 5848 5851 5853 5856 5858 5862 5864 5867 5870 5873 5878 5882 5884 5885 5887 5888 5889
5863 5859 5855 5851 5847 5843 5840 5838 5834 5831 5829 5827 5826 5825 5825 5825 5825 5825 5826 5827 5828 5829 5830 5831 5832 5833 5835 5837 5839 5841 5843 5846 5848 5851 5853 5857 5861 5864 5866 5870 5874 5878 5881 5884 5884 5886 5888
5857 5852 5848 5844 5839 5835 5831 5828 5825 5823 5820 5818 5816 5815 5815 5816 5816 5816 5817 5818 5819 5821 5822 5823 5825 5827 5828 5830 5832 5834 5837 5840 5843 5845 5848 5852 5856 5859 5862 5865 5873 5875 5878 5881 5882 5885 5885
5850 5845 5840 5835 5830 5825 5821 5817 5814 5812 5810 5809 5807 5805 5805 5805 5806 5807 5808 5809 5811 5813 5814 5815 5818 5819 5820 5823 5825 5827 5830 5833 5836 5840 5843 5846 5850 5856 5858 5861 5865 5867 5874 5878 5883 5879 5882
5844 5838 5832 5827 5822 5817 5812 5808 5805 5802 5799 5798 5796 5795 5795 5795 5796 5797 5798 5799 5800 5803 5804 5806 5808 5810 5812 5814 5817 5819 5822 5825 5828 5833 5836 5840 5845 5849 5851 5854 5858 5861 5866 5872 5878 5877 5880
5837 5831 5824 5818 5811 5806 5801 5797 5794 5791 5789 5787 5786 5785 5785 5786 5786 5788 5788 5789 5790 5791 5793 5796 5797 5800 5802 5805 5808 5811 5814 5816 5820 5823 5827 5833 5839 5840 5845 5849 5852 5856 5861 5867 5871 5873 5875
5829 5822 5814 5807 5800 5794 5790 5786 5782 5779 5777 5776 5775 5774 5774 5775 5778 5778 5780 5781 5781 5783 5784 5785 5788 5790 5792 5794 5797 5801 5803 5808 5811 5814 5817 5823 5828 5833 5837 5842 5846 5850 5856 5860 5862 5866 5871
5821 5813 5807 5799 5792 5786 5780 5774 5770 5767 5765 5764 5763 5763 5763 5764 5766 5767 5769 5770 5772 5774 5775 5774 5777 5779 5782 5784 5788 5789 5793 5797 5800 5803 5808 5814 5816 5822 5828 5833 5837 5843 5848 5852 5854 5858 5861
5815 5807 5798 5790 5783 5776 5769 5764 5759 5756 5753 5751 5751 5751 5752 5753 5755 5757 5758 5760 5763 5766 5764 5765 5766 5769 5771 5773 5776 5780 5782 5785 5790 5792 5796 5801 5804 5810 5817 5821 5828 5834 5838 5841 5845 5850 5849
5808 5799 5790 5782 5774 5766 5759 5753 5749 5746 5743 5741 5740 5741 5742 5743 5745 5746 5748 5751 5754 5756 5754 5753 5757 5760 5761 5762 5765 5768 5771 5775 5779 5782 5786 5790 5793 5797 5804 5811 5817 5824 5829 5833 5836 5837 5844
5804 5794 5784 5776 5769 5762 5755 5748 5743 5738 5734 5732 5730 5731 5731 5733 5735 5737 5739 5743 5744 5745 5742 5745 5748 5750 5752 5753 5754 5759 5761 5764 5767 5770 5775 5779 5785 5786 5791 5800 5807 5812 5819 5823 5828 5836 5844
5797 5788 5780 5771 5766 5759 5752 5745 5739 5733 5728 5725 5724 5724 5725 5726 5727 5730 5733 5735 5737 5734 5737 5739 5741 5742 5743 5746 5748 5751 5753 5755 5752 5762 5764 5768 5772 5776 5778 5782 5791 5803 5801 5820 5823 5833 5837
5794 5786 5778 5770 5763 5755 5748 5741 5735 5728 5722 5719 5719 5720 5720 5720 5721 5724 5727 5729 5730 5731 5732 5734 5735 5735 5736 5735 5740 5740 5742 5742 5744 5751 5753 5757 5760 5767 5769 5769 5779 5784 5801 5804 5806 5814 5819
5791 5784 5776 5768 5761 5753 5745 5738 5732 5726 5717 5715 5717 5718 5718 5719 5721 5723 5724 5724 5725 5726 5726 5727 5727 5727 5726 5727 5724 5728 5728 5728 5732 5738 5741 5745 5749 5758 5758 5760 5770 5774 5782 5786 5798 5804 5810
5788 5782 5775 5767 5759 5752 5744 5737 5730 5725 5721 5718 5718 5718 5718 5718 5720 5720 5721 5721 5720 5718 5718 5716 5716 5715 5714 5713 5713 5712 5716 5714 5717 5723 5728 5729 5736 5742 5749 5753 5755 5762 5768 5774 5784 5793 5800
5786 5780 5774 5766 5758 5752 5743 5737 5731 5726 5722 5719 5719 5718 5718 5718 5719 5718 5718 5716 5715 5713 5711 5709 5706 5703 5701 5699 5698 5697 5697 5697 5699 5705 5709 5714 5723 5727 5734 5740 5742 5747 5755 5758 5768 5783 5792
5785 5778 5772 5765 5757 5750 5744 5738 5733 5729 5725 5723 5722 5721 5720 5719 5718 5717 5715 5713 5710 5707 5703 5699 5696 5693 5691 5689 5687 5685 5682 5683 5682 5686 5688 5697 5702 5709 5718 5728 5720 5730 5736 5746 5758 5765 5777
5783 5777 5771 5765 5756 5750 5745 5740 5735 5731 5728 5726 5725 5723 5721 5719 5717 5715 5711 5707 5703 5698 5693 5690 5688 5684 5681 5677 5674 5672 5670 5669 5668 5670 5674 5679 5685 5692 5696 5703 5706 5713 5719 5728 5735 5746 5753
5782 5777 5771 5765 5758 5751 5747 5743 5738 5734 5731 5730 5727 5725 5722 5719 5715 5711 5707 5702 5697 5693 5691 5689 5685 5681 5677 5670 5667 5664 5662 5660 5659 5659 5662 5666 5669 5674 5680 5686 5692 5699 5706 5711 5723 5734 5739
5781 5776 5771 5765 5759 5754 5749 5745 5741 5738 5733 5731 5728 5725 5721 5717 5712 5707 5703 5698 5695 5692 5690 5685 5682 5678 5672 5667 5661 5656 5653 5652 5653 5653 5653 5656 5659 5664 5666 5675 5682 5685 5696 5702 5714 5722 5732
5781 5774 5770 5766 5760 5755 5751 5746 5742 5738 5734 5730 5727 5723 5719 5715 5710 5706 5700 5697 5694 5691 5687 5682 5678 5674 5668 5660 5655 5649 5645 5644 5644 5645 5646 5649 5650 5653 5657 5664 5665 5678 5686 5690 5696 5705 5716
5779 5773 5769 5765 5761 5755 5751 5746 5742 5738 5733 5729 5724 5720 5715 5711 5707 5703 5699 5695 5691 5687 5683 5678 5673 5668 5659 5654 5648 5643 5639 5637 5636 5635 5637 5640 5642 5644 5646 5651 5659 5666 5669 5667 5676 5693 5699
5778 5773 5769 5764 5760 5755 5750 5746 5741 5736 5732 5727 5723 5718 5713 5710 5706 5701 5697 5693 5688 5682 5678 5674 5667 5661 5656 5649 5642 5638 5635 5633 5630 5628 5628 5629 5633 5634 5637 5641 5646 5660 5650 5659 5670 5683 5693
5778 5773 5768 5764 5758 5754 5749 5745 5740 5735 5730 5725 5721 5716 5713 5709 5704 5700 5696 5691 5685 5680 5675 5670 5664 5658 5651 5644 5639 5635 5632 5628 5624 5623 5622 5623 5624 5624 5627 5630 5636 5635 5642 5651 5658 5669 5670
5777 5773 5767 5763 5757 5753 5748 5744 5739 5734 5729 5725 5720 5715 5711 5707 5703 5700 5696 5691 5686 5681 5675 5669 5663 5655 5647 5641 5636 5632 5628 5625 5621 5618 5618 5619 5618 5617 5621 5623 5625 5629 5635 5639 5648 5653 5663
5776 5772 5766 5762 5756 5752 5747 5742 5738 5734 5730 5725 5720 5714 5709 5705 5701 5698 5694 5690 5685 5679 5673 5667 5660 5652 5646 5639 5634 5631 5627 5623 5619 5620 5616 5616 5616 5618 5618 5619 5619 5623 5627 5631 5638 5646 5655